Weather History for KBTA - March, 2014

Change the Weather History Date:

Friday, March 14, 2014

  Actual Average (KOMA) Record (KOMA)
Temperature  
Mean Temperature 48 °F 39 °F  
Max Temperature 57 °F 50 °F 81 °F (1871)
Min Temperature 39 °F 27 °F -7 °F (1880)
Degree Days  
Heating Degree Days 17 26  
Month to date heating degree days 407  
Since 1 July heating degree days 5205  
Cooling Degree Days 0 0  
Month to date cooling degree days 0  
Year to date cooling degree days 0  
Moisture  
Dew Point 22 °F    
Average Humidity 37    
Maximum Humidity 66    
Minimum Humidity 21    
Precipitation  
Precipitation 0.00 in 0.06 in 1.10 in (1923)
Month to date precipitation 0.72  
Year to date precipitation 2.29  
Snow  
Snow 0.00 in 0.20 in - ()
Month to date snowfall 2.3  
Since 1 July snowfall 23.5  
Snow Depth -    
Sea Level Pressure  
Sea Level Pressure 29.84 in    
Wind  
Wind Speed 14 mph (WNW)    
Max Wind Speed 24 mph    
Max Gust Speed 32 mph    
Visibility 10 miles    
Events      
T = Trace of Precipitation, MM = Missing Value Source: NWS Daily Summary

Daily Weather History Graph

Daily Weather History Graph

Search for Another Location

Airport or City:

Trip Planner

Search our weather history database for the weather conditions in past years. The results will help you decide how hot, cold, wet, or windy it might be!

Date:

Astronomy

Mar. 14, 2014 Rise Set
Actual Time 7:37 AM CDT 7:30 PM CDT
Civil Twilight 7:10 AM CDT 7:57 PM CDT
Nautical Twilight 6:38 AM CDT 8:29 PM CDT
Astronomical Twilight 6:05 AM CDT 9:02 PM CDT
Moon 5:52 PM CDT (3/14) 6:19 AM CDT (3/14)
Length of Visible Light 12h 47m
Length of Day
11h 52m
Waxing Gibbous, 96% of the Moon is Illuminated
Mar 14
Waxing Gibbous
Mar 16
Full
Mar 23
Last Quarter
Mar 30
New
Apr 7
First Quarter

Hourly Weather History & Observations

Time (CDT) Temp. Windchill Dew Point Humidity Pressure Visibility Wind Dir Wind Speed Gust Speed Precip Events Conditions
12:15 AM 49.6 °F - 20.3 °F 31% 29.64 in 10.0 mi South 13.8 mph - N/A   Clear
12:35 AM 50.7 °F - 20.5 °F 30% 29.64 in 10.0 mi South 16.1 mph - N/A   Clear
12:55 AM 52.5 °F - 21.0 °F 29% 29.62 in 10.0 mi South 19.6 mph - N/A   Clear
1:15 AM 52.0 °F - 21.0 °F 30% 29.62 in 10.0 mi South 19.6 mph 25.3 mph N/A   Clear
1:35 AM 51.4 °F - 21.2 °F 31% 29.62 in 10.0 mi South 18.4 mph - N/A   Clear
1:55 AM 48.9 °F - 20.7 °F 33% 29.69 in 10.0 mi West 18.4 mph 29.9 mph N/A   Clear
2:15 AM 49.5 °F - 20.1 °F 31% 29.67 in 10.0 mi WSW 10.4 mph 17.3 mph N/A   Clear
2:35 AM 46.2 °F 40.8 °F 19.9 °F 35% 29.65 in 10.0 mi SSW 11.5 mph - N/A   Clear
2:55 AM 47.3 °F - 20.1 °F 34% 29.67 in 10.0 mi WSW 10.4 mph - N/A   Clear
3:15 AM 48.7 °F - 19.6 °F 32% 29.67 in 10.0 mi West 9.2 mph - N/A   Clear
3:35 AM 46.9 °F - 19.9 °F 34% 29.68 in 10.0 mi West 5.8 mph - N/A   Clear
3:55 AM 45.9 °F 41.7 °F 21.4 °F 38% 29.67 in 10.0 mi NW 8.1 mph - N/A   Clear
4:15 AM 46.4 °F 41.9 °F 25.5 °F 44% 29.69 in 10.0 mi NW 9.2 mph - N/A   Clear
4:35 AM 46.0 °F 40.6 °F 28.2 °F 50% 29.69 in 10.0 mi NW 11.5 mph - N/A   Clear
4:55 AM 46.8 °F - 30.0 °F 52% 29.69 in 10.0 mi NW 12.7 mph - N/A   Clear
5:15 AM 45.7 °F 38.6 °F 30.9 °F 56% 29.71 in 10.0 mi NW 17.3 mph - N/A   Clear
5:35 AM 46.4 °F 39.2 °F 31.6 °F 56% 29.71 in 10.0 mi NW 18.4 mph 24.2 mph N/A   Mostly Cloudy
5:55 AM 45.9 °F 38.8 °F 31.8 °F 58% 29.73 in 10.0 mi NW 17.3 mph 24.2 mph N/A   Scattered Clouds
6:15 AM 44.4 °F 36.9 °F 30.7 °F 59% 29.75 in 10.0 mi NW 17.3 mph - N/A   Scattered Clouds
6:35 AM 44.2 °F 35.9 °F 27.5 °F 52% 29.76 in 10.0 mi NNW 20.7 mph 27.6 mph N/A   Clear
6:55 AM 42.3 °F 35.1 °F 28.2 °F 58% 29.78 in 10.0 mi NW 13.8 mph - N/A   Clear
7:15 AM 41.7 °F 34.1 °F 27.9 °F 58% 29.79 in 10.0 mi NW 15.0 mph - N/A   Clear
7:35 AM 41.2 °F 34.5 °F 27.7 °F 59% 29.80 in 10.0 mi NW 11.5 mph - N/A   Clear
7:55 AM 40.1 °F 32.4 °F 28.2 °F 63% 29.81 in 10.0 mi NW 13.8 mph - N/A   Clear
8:15 AM 39.6 °F 33.5 °F 28.8 °F 65% 29.83 in 10.0 mi WNW 9.2 mph - N/A   Clear
8:35 AM 39.2 °F 34.2 °F 28.8 °F 66% 29.84 in 10.0 mi WNW 6.9 mph - N/A   Clear
8:55 AM 40.1 °F 34.7 °F 28.9 °F 64% 29.85 in 10.0 mi WNW 8.1 mph - N/A   Clear
9:15 AM 41.9 °F 36.3 °F 28.9 °F 60% 29.86 in 10.0 mi WNW 9.2 mph 16.1 mph N/A   Clear
9:35 AM 43.3 °F 36.5 °F 29.3 °F 58% 29.86 in 10.0 mi WNW 13.8 mph 18.4 mph N/A   Clear
9:55 AM 44.6 °F 37.8 °F 29.8 °F 56% 29.87 in 10.0 mi WNW 15.0 mph 21.9 mph N/A   Clear
10:15 AM 45.5 °F 38.1 °F 30.0 °F 55% 29.88 in 10.0 mi WNW 18.4 mph 26.5 mph N/A   Clear
10:35 AM 46.9 °F - 29.5 °F 51% 29.89 in 10.0 mi WNW 17.3 mph 24.2 mph N/A   Clear
10:55 AM 48.0 °F - 28.9 °F 48% 29.90 in 10.0 mi WNW 15.0 mph 26.5 mph N/A   Clear
11:15 AM 49.3 °F - 27.5 °F 43% 29.89 in 10.0 mi NW 17.3 mph 20.7 mph N/A   Clear
11:35 AM 50.5 °F - 26.2 °F 39% 29.90 in 10.0 mi WNW 18.4 mph 25.3 mph N/A   Clear
11:55 AM 51.4 °F - 24.1 °F 34% 29.90 in 10.0 mi WNW 18.4 mph 26.5 mph N/A   Clear
12:15 PM 51.8 °F - 22.1 °F 31% 29.90 in 10.0 mi West 17.3 mph 29.9 mph N/A   Clear
12:35 PM 53.1 °F - 21.7 °F 29% 29.91 in 10.0 mi NW 20.7 mph 26.5 mph N/A   Clear
12:55 PM 52.7 °F - 21.2 °F 29% 29.91 in 10.0 mi WNW 18.4 mph 28.8 mph N/A   Clear
1:15 PM 53.8 °F - 20.7 °F 27% 29.91 in 10.0 mi NW 21.9 mph 32.2 mph N/A   Clear
1:35 PM 54.3 °F - 18.7 °F 25% 29.91 in 10.0 mi NW 21.9 mph 32.2 mph N/A   Clear
1:55 PM 55.0 °F - 19.2 °F 25% 29.91 in 10.0 mi NW 20.7 mph 28.8 mph N/A   Clear
2:15 PM 55.2 °F - 19.0 °F 24% 29.91 in 10.0 mi NW 24.2 mph 29.9 mph N/A   Clear
2:35 PM 55.8 °F - 17.2 °F 22% 29.90 in 10.0 mi NW 20.7 mph 29.9 mph N/A   Clear
2:55 PM 56.3 °F - 17.6 °F 22% 29.90 in 10.0 mi WNW 16.1 mph 27.6 mph N/A   Clear
3:15 PM 56.5 °F - 17.6 °F 22% 29.90 in 10.0 mi WNW 17.3 mph 28.8 mph N/A   Clear
3:35 PM 57.0 °F - 17.1 °F 21% 29.90 in 10.0 mi WNW 18.4 mph 24.2 mph N/A   Clear
3:55 PM 57.0 °F - 16.9 °F 21% 29.90 in 10.0 mi WNW 19.6 mph 27.6 mph N/A   Clear
4:15 PM 56.8 °F - 17.8 °F 22% 29.90 in 10.0 mi WNW 16.1 mph 23.0 mph N/A   Clear
4:35 PM 57.2 °F - 17.8 °F 21% 29.90 in 10.0 mi NW 16.1 mph 25.3 mph N/A   Clear
4:55 PM 57.2 °F - 18.0 °F 22% 29.90 in 10.0 mi NW 13.8 mph 27.6 mph N/A   Clear
5:15 PM 57.2 °F - 18.5 °F 22% 29.90 in 10.0 mi WNW 16.1 mph 21.9 mph N/A   Clear
5:35 PM 57.2 °F - 18.3 °F 22% 29.91 in 10.0 mi WNW 11.5 mph 21.9 mph N/A   Clear
5:55 PM 57.4 °F - 18.5 °F 22% 29.91 in 10.0 mi WNW 16.1 mph 20.7 mph N/A   Clear
6:15 PM 57.4 °F - 18.3 °F 22% 29.91 in 10.0 mi WNW 11.5 mph 18.4 mph N/A   Clear
6:35 PM 56.8 °F - 18.5 °F 22% 29.91 in 10.0 mi WNW 11.5 mph - N/A   Clear
6:55 PM 55.9 °F - 18.7 °F 23% 29.92 in 10.0 mi NW 6.9 mph - N/A   Clear
7:15 PM 54.3 °F - 19.2 °F 25% 29.92 in 10.0 mi NW 4.6 mph - N/A   Clear
7:35 PM 52.2 °F - 19.2 °F 27% 29.92 in 10.0 mi NNW 5.8 mph - N/A   Clear
7:55 PM 50.2 °F - 19.0 °F 29% 29.93 in 10.0 mi NNW 6.9 mph - N/A   Clear
8:15 PM 52.0 °F - 19.0 °F 27% 29.92 in 10.0 mi Calm Calm - N/A   Clear
8:35 PM 48.9 °F - 19.0 °F 31% 29.92 in 10.0 mi Calm Calm - N/A   Clear
8:55 PM 48.0 °F - 19.0 °F 32% 29.93 in 10.0 mi Calm Calm - N/A   Clear
9:15 PM 48.4 °F - 18.9 °F 31% 29.93 in 10.0 mi Calm Calm - N/A   Clear
9:35 PM 45.0 °F - 18.9 °F 35% 29.93 in 10.0 mi Calm Calm - N/A   Clear
9:55 PM 47.8 °F - 18.9 °F 32% 29.93 in 10.0 mi ESE 3.5 mph - N/A   Clear
10:15 PM 47.1 °F - 18.9 °F 33% 29.93 in 10.0 mi ESE 4.6 mph - N/A   Clear
10:35 PM 42.8 °F 40.1 °F 19.2 °F 39% 29.93 in 10.0 mi SE 4.6 mph - N/A   Clear
10:55 PM 45.7 °F 43.4 °F 18.9 °F 34% 29.93 in 10.0 mi ESE 4.6 mph - N/A   Clear
11:15 PM 46.0 °F 43.1 °F 19.0 °F 34% 29.93 in 10.0 mi SE 5.8 mph - N/A   Clear
11:35 PM 44.6 °F 41.4 °F 19.4 °F 37% 29.93 in 10.0 mi ESE 5.8 mph - N/A   Clear
11:55 PM 45.1 °F 42.0 °F 19.2 °F 36% 29.93 in 10.0 mi ESE 5.8 mph - N/A   Clear